Tracking 19909 objects as of 22-Oct-2019
HD Live streaming from Space Station
objects crossing your sky now

COSMOS 400

Track COSMOS 400 now!
10-day predictions
COSMOS 400 is classified as:


NORAD ID: 5050
Int'l Code: 1971-020A
Perigee: 987.1 km
Apogee: 1,011.0 km
Inclination: 65.8 °
Period: 104.9 minutes
Semi major axis: 7370 km
RCS: 1.4626 m2 (large)
Launch date: March 18, 1971
Source: Commonwealth of Independent States (former USSR) (CIS)
Launch site: PLESETSK MISSILE AND SPACE COMPLEX (PKMTR)
aabbcc
Your satellite tracking list
Your tracking list is empty




NASA's NSSDC Master Catalog

Two Line Element Set (TLE):
1  5050U 71020A   19294.88059448 -.00000078  00000-0  23412-5 0  9994
2  5050  65.8264  49.6709 0016197 260.9420 236.2891 13.72140089434765
Source of the keplerian elements: AFSPC